Flag for Ireland Weather past 2 weeks in Dublin, Ireland

Now
68 °F

Broken clouds.


Feels Like: 68 °F
Forecast: 57 / 70 °F
Wind: 14 mph from West

Location: Dublin Airport

Current Time: Jul 30, 2014 at 7:15:07 PM

Latest Report: Jul 30, 2014 at 6:30 PM


Visibility: N/A

Pressure: 29.95 "Hg

Humidity: 64%

Dew point: 55 °F

Location of DublinLocation

Historic Weather in Dublin — Graph

°F

Dublin temperature yesterday

Maximum temperature yesterday: 68 °F (at 1:30 PM)
Minimum temperature yesterday: 55 °F (at 10:00 PM)
Average temperature yesterday: 61 °F

Past Weeks' High & Low Weather Summary

 TemperatureHumidityPressure
High75 °F (Jul 23, 2:30 PM)100% (Jul 17, 4:00 AM)30.24 "Hg (Jul 17, 4:00 AM)
Low50 °F (Jul 17, 6:30 AM)46% (Jul 27, 2:00 PM)29.74 "Hg (Jul 19, 2:30 PM)
Average63 °F80%30.03 "Hg
* Reported Jul 15 6:00 PM — Jul 30 6:00 PM, Dublin, Weather by CustomWeather, © 2014

Note: Actual official high and low records may vary slightly from our data, if they occured in-between our weather recording intervals... More about our weather records

Advertising

Dublin weather history for previous 24 hours

 ConditionsComfort  
Time TempWeatherWind HumidityBarometerVisibility
6:00 PM
Jul 30
68 °FBroken clouds.14 mph64%29.95 "HgN/A
5:30 PM66 °FBroken clouds.10 mph68%29.98 "HgN/A
5:00 PM66 °FPartly sunny.16 mph68%29.98 "HgN/A
4:30 PM66 °FPartly sunny.17 mph68%29.98 "HgN/A
4:00 PM66 °FPartly sunny.20 mph68%29.98 "HgN/A
3:30 PM68 °FBroken clouds.23 mph64%29.98 "HgN/A
3:00 PM66 °FBroken clouds.18 mph68%29.98 "HgN/A
2:30 PM66 °FBroken clouds.21 mph64%29.98 "HgN/A
2:00 PM68 °FPartly sunny.24 mph60%29.98 "HgN/A
1:30 PM66 °FPartly sunny.22 mph64%29.98 "HgN/A
1:00 PM66 °FPartly sunny.22 mph64%29.98 "HgN/A
12:30 PM66 °FScattered clouds.25 mph64%29.98 "HgN/A
12:00 PM68 °FScattered clouds.24 mph60%29.98 "HgN/A
11:30 AM66 °FScattered clouds.24 mph64%29.98 "HgN/A
11:00 AM64 °FScattered clouds.23 mph68%29.98 "HgN/A
10:30 AM64 °FPassing clouds.23 mph68%29.98 "HgN/A
10:00 AM61 °FPartly sunny.22 mph77%30.01 "HgN/A
9:30 AM61 °FPartly sunny.22 mph77%30.01 "HgN/A
9:00 AM59 °FBroken clouds.18 mph82%30.01 "HgN/A
8:30 AM57 °FPartly sunny.20 mph88%30.01 "HgN/A
8:00 AM57 °FPartly sunny.18 mph88%30.01 "HgN/A
7:30 AM55 °FPassing clouds.20 mph94%30.01 "HgN/A
7:00 AM55 °FPassing clouds.17 mph88%30.01 "HgN/A
6:30 AM54 °FPassing clouds.16 mph94%30.01 "HgN/A
6:00 AM54 °FPassing clouds.13 mph94%30.01 "HgN/A
5:30 AM54 °FPassing clouds.14 mph94%30.01 "HgN/A
5:00 AM54 °FPassing clouds.15 mph94%30.01 "HgN/A
4:30 AM54 °FPassing clouds.13 mph94%30.01 "HgN/A
4:00 AM55 °FPassing clouds.14 mph88%30.04 "HgN/A
3:30 AM55 °FPassing clouds.12 mph88%30.04 "HgN/A
3:00 AM57 °FPassing clouds.10 mph82%30.04 "HgN/A
2:30 AM57 °FPassing clouds.14 mph82%30.04 "HgN/A
2:00 AM59 °FPassing clouds.13 mph77%30.04 "HgN/A
1:30 AM59 °FPassing clouds.12 mph77%30.07 "HgN/A
1:00 AM57 °FPassing clouds.13 mph82%30.07 "HgN/A
12:30 AM57 °FPassing clouds.13 mph82%30.07 "HgN/A
12:00 AM57 °FPassing clouds.10 mph82%30.07 "HgN/A
11:30 PM
Jul 29
55 °FPassing clouds.8 mph82%30.07 "HgN/A
11:00 PM55 °FPassing clouds.9 mph88%30.07 "HgN/A
10:30 PM57 °FPassing clouds.6 mph82%30.07 "HgN/A
10:00 PM55 °FScattered clouds.7 mph82%30.07 "HgN/A
9:30 PM59 °FScattered clouds.8 mph77%30.07 "HgN/A
9:00 PM61 °FPartly sunny.8 mph72%30.07 "HgN/A
8:30 PM63 °FScattered clouds.9 mph64%30.07 "HgN/A
8:00 PM63 °FScattered clouds.12 mph64%30.07 "HgN/A
7:30 PM64 °FPartly sunny.12 mph60%30.07 "HgN/A
7:00 PM66 °FBroken clouds.13 mph56%30.07 "HgN/A
Weather by CustomWeather, © 2014

See weather overviewHow to use our weather pages